Weather in Kamskie Polyany

Russia / Republic of Tatarstan     55°25′43″N   51°24′49″E
temp.,
°C
wind,
m/s
gust,
m/s
humid.,
%
clouds,
%
prec.,
mm/h
press.,
hPa
HPBL,
m
26 february, fri
fri2600:00−19sse4109496 0.1 1021436
03:00−20se499596 0.1 1020370
06:00−20se389596 0.1 1020236
09:00−18se499184 0.1 1019363
12:00−15sse588890 0.0 1019533
15:00−14sse698895 0.0 1017613
18:00−16sse61390100 0.0 1014486
21:00−15sse81588100 0.0 1010565
27 february, sat
sat2700:00−13sse71594100 2.7 1004649
03:00−12sse61294100 6.6 1002604
06:00−11se51094100 0.8 999413
09:00−8ese4695100 1.4 998332
12:00−5e4695100 0.6 998327
15:00−5ene5796100 1.2 998283
18:00−7ene5995100 0.4 998252
21:00−9ne5994100 0.9 999261
28 february, sun
sun2800:00−10ne6109494 0.2 1000331
03:00−12ne6119495 0.4 1002369
06:00−15nne61094100 0.2 1004344
09:00−16nne599399 0.3 1006338
12:00−14nne579199 0.0 1008406
15:00−13nne479099 0.1 1010517
18:00−16n3696100 0.0 1012102
21:00−19n349793 0.1 101558
1 march, mon
mon100:00−21n339845 0.0 101641
03:00−23n339734 0.0 101939
06:00−23n339713 0.0 102130
09:00−20n35936 0.0 1023207
12:00−15n348710 0.0 1024317
15:00−13nw238838 0.0 1024316
18:00−18w22968 0.0 102420
21:00−20sw22964 0.0 102520
2 march, tue
tue200:00−20sw479915 0.0 1023101
03:00−19sw5109536 0.0 1021227
06:00−17ssw71392100 0.0 1017293
09:00−14sw71392100 0.0 1014386
12:00−10sw71293100 0.4 1011525
15:00−8sw71294100 1.1 1008559
18:00−8ssw61193100 0.4 1006347
21:00−8ssw51094100 0.6 1006252